BEIDOU-3 M14 (C33)

Last updated on Wed Aug 26 2026 00:04:16 GMT+0000 (Coordinated Universal Time)

1 43623U 18072B 26236.59461755 -.00000007 00000+0 00000+0 0 9993 2 43623 56.6889 60.3988 0004311 22.7118 337.3682 1.86231344 53929
UTC large
Height (km)
Speed (km/s)
/
Latitude / Longitude
Inclination (degrees)
Orbital Period (minutes)
Azimuth
Elevation
Range (km)
Doppler Factor

Next 0 passes for location: London (51.5072 / 0.1276)

No passes found over London.
BEIDOU-3 M14 (C33)